AC4VM Weather Reports


Display with metric or nautical units.
time (UTC)temp
F
wind
direction
speed
MPH
gust
MPH
rain 1hr
in
rain 24hr
in
rain mn
in
humidity
%
barometer
mb
20260510151524 71 295 3.0 7.0 0.00 0.00 0.00 75 1015.8
20260510150016 70 97 0.0 4.0 0.00 0.00 0.00 77 1015.8
20260510144513 69 104 2.0 7.0 0.00 0.00 0.00 77 1015.6
20260510143012 68 98 1.0 4.0 0.00 0.00 0.00 78 1015.6
20260510141509 68 87 1.0 8.0 0.00 0.00 0.00 84 1015.5
20260510140005 66 83 3.0 7.0 0.00 0.00 0.00 85 1015.6
20260510134502 65 64 1.0 4.0 0.00 0.00 0.00 93 1015.6
20260510133101 63 244 1.0 4.0 0.00 0.00 0.00 96 1015.6
20260510131600 62 211 0.0 3.0 0.00 0.00 0.00 97 1015.7
20260510130053 60 89 1.0 3.0 0.00 0.00 0.00 97 1015.7
20260510124551 59 264 0.0 2.0 0.00 0.00 0.00 97 1015.7
20260510123049 58 264 0.0 1.0 0.00 0.00 0.00 97 1015.7
20260510121546 57 264 0.0 2.0 0.00 0.00 0.00 97 1015.5
20260510120046 56 264 0.0 1.0 0.00 0.00 0.00 97 1015.4
20260510114605 54 264 0.0 2.0 0.00 0.00 0.00 97 1015.2
20260510113053 54 264 1.0 3.0 0.00 0.00 0.00 96 1015.1
20260510111542 53 264 0.0 1.0 0.00 0.00 0.00 96 1014.8
20260510110041 52 264 0.0 1.0 0.00 0.00 0.00 96 1014.6
20260510104538 52 264 1.0 2.0 0.00 0.00 0.00 96 1014.2
20260510103035 53 264 0.0 1.0 0.00 0.00 0.00 96 1014.2
20260510101533 53 264 0.0 2.0 0.00 0.00 0.00 96 1013.9
20260510100042 53 264 0.0 0.0 0.00 0.00 0.00 96 1013.8
20260510094535 52 264 0.0 0.0 0.00 0.00 0.00 96 1013.6
20260510093027 52 264 0.0 1.0 0.00 0.00 0.00 95 1013.3
20260510091526 53 264 0.0 0.0 0.00 0.00 0.00 95 1013.1
20260510090028 52 264 0.0 0.0 0.00 0.00 0.00 95 1013.0
20260510084527 52 264 0.0 1.0 0.00 0.00 0.00 95 1012.9
20260510083021 52 264 0.0 2.0 0.00 0.00 0.00 95 1012.7
20260510081519 51 264 0.0 1.0 0.00 0.00 0.00 95 1012.6
20260510080020 52 264 0.0 1.0 0.00 0.00 0.00 95 1012.4
20260510074516 52 264 0.0 1.0 0.00 0.00 0.00 95 1012.2
20260510073013 53 264 0.0 3.0 0.00 0.00 0.00 94 1012.0
20260510071516 53 295 0.0 0.0 0.00 0.00 0.00 95 1012.1
20260510070013 54 295 0.0 0.0 0.00 0.00 0.00 95 1012.0
20260510064509 54 295 0.0 0.0 0.00 0.00 0.00 94 1011.9
20260510063010 54 295 0.0 0.0 0.00 0.00 0.00 95 1011.9
20260510061506 54 295 0.0 0.0 0.00 0.00 0.00 94 1012.0
20260510060005 54 295 0.0 0.0 0.00 0.00 0.00 94 1012.2
20260510054503 55 295 0.0 0.0 0.00 0.00 0.00 94 1012.3
20260510053002 55 295 0.0 0.0 0.00 0.00 0.00 94 1012.4
20260510051502 55 295 0.0 0.0 0.00 0.00 0.00 93 1012.3
20260510050100 56 295 0.0 0.0 0.00 0.00 0.00 93 1012.2
20260510044611 56 295 0.0 0.0 0.00 0.00 0.00 93 1012.1
20260510043104 56 295 0.0 0.0 0.00 0.00 0.00 92 1012.0
20260510041558 57 295 2.0 3.0 0.00 0.00 0.00 93 1012.2
20260510040053 57 295 0.0 0.0 0.00 0.00 0.00 91 1012.0
20260510034551 58 295 0.0 0.0 0.00 0.00 0.00 91 1011.9
20260510033115 58 295 0.0 1.0 0.00 0.00 0.00 90 1011.9
20260510031605 59 295 0.0 0.0 0.00 0.00 0.00 90 1011.8
20260510030050 60 295 0.0 0.0 0.00 0.00 0.00 90 1011.7
20260510024548 60 294 0.0 1.0 0.00 0.00 0.00 89 1011.6
20260510023048 60 294 0.0 2.0 0.00 0.00 0.00 89 1011.5
20260510021547 60 294 0.0 0.0 0.00 0.00 0.00 88 1011.5
20260510020048 61 294 0.0 1.0 0.00 0.00 0.00 87 1011.1
20260510014547 62 294 0.0 2.0 0.00 0.00 0.00 87 1010.8
20260510013046 64 294 0.0 2.0 0.00 0.00 0.00 81 1010.5
20260510011546 64 294 0.0 2.0 0.00 0.00 0.00 81 1010.3
20260510010057 65 294 0.0 1.0 0.00 0.00 0.00 82 1010.2
20260510004544 66 294 0.0 1.0 0.00 0.00 0.00 76 1009.9
20260510003054 67 294 0.0 1.0 0.00 0.00 0.00 76 1009.8
20260510001546 69 294 0.0 1.0 0.00 0.00 0.00 71 1009.6
20260510000051 70 294 0.0 2.0 0.00 0.00 0.00 71 1009.5
20260509234556 71 294 0.0 2.0 0.00 0.00 0.00 63 1009.2
20260509233042 72 294 0.0 2.0 0.00 0.00 0.00 60 1009.0
20260509231542 73 295 1.0 4.0 0.00 0.00 0.00 57 1008.9
20260509230042 73 270 2.0 5.0 0.00 0.00 0.00 57 1008.9
20260509224540 73 252 1.0 5.0 0.00 0.00 0.00 58 1008.9
20260509223046 74 295 2.0 6.0 0.00 0.00 0.00 56 1008.7
20260509221540 74 306 3.0 8.0 0.00 0.00 0.00 55 1008.9
20260509220054 74 227 4.0 11.0 0.00 0.00 0.00 58 1009.0
20260509214542 73 254 1.0 5.0 0.00 0.00 0.00 58 1008.9
20260509213041 74 235 2.0 6.0 0.00 0.00 0.00 58 1008.7
20260509211543 74 240 1.0 6.0 0.00 0.00 0.00 57 1008.7
20260509210038 74 258 2.0 4.0 0.00 0.00 0.00 61 1008.4
20260509204542 74 256 3.0 8.0 0.00 0.00 0.00 64 1008.4
20260509203036 75 249 5.0 13.0 0.00 0.00 0.00 60 1008.8
20260509201532 74 253 4.0 15.0 0.00 0.00 0.00 56 1009.0
20260509200037 73 241 3.0 7.0 0.00 0.00 0.00 60 1009.1
20260509194538 74 256 5.0 12.0 0.00 0.00 0.00 61 1009.1
20260509193037 73 75 1.0 4.0 0.00 0.00 0.00 64 1009.1
20260509191528 73 216 4.0 9.0 0.00 0.00 0.00 60 1009.2
20260509190027 72 233 3.0 7.0 0.00 0.00 0.00 63 1009.3
20260509184528 73 226 1.0 7.0 0.00 0.00 0.00 61 1009.2
20260509183029 72 222 2.0 9.0 0.00 0.00 0.00 61 1009.2
20260509181521 72 199 2.0 8.0 0.00 0.00 0.00 64 1009.4
20260509180020 70 233 4.0 11.0 0.00 0.00 0.00 64 1009.5
20260509174518 70 266 5.0 10.0 0.00 0.00 0.00 65 1009.7
20260509173016 72 245 5.0 11.0 0.00 0.00 0.00 68 1009.7
20260509171515 69 264 0.0 4.0 0.00 0.00 0.00 67 1010.1
20260509170014 68 122 1.0 7.0 0.00 0.00 0.00 71 1010.0
20260509164512 68 248 1.0 9.0 0.00 0.00 0.00 69 1010.3
20260509163018 67 250 2.0 10.0 0.00 0.00 0.00 71 1010.3
20260509161512 67 204 2.0 12.0 0.00 0.00 0.00 73 1010.5
20260509160009 67 221 1.0 10.0 0.00 0.00 0.00 74 1010.5
20260509154508 66 142 1.0 5.0 0.00 0.00 0.00 71 1010.6
20260509153009 66 225 1.0 5.0 0.00 0.00 0.00 78 1010.6